Location: Bonneuil
(46.1010°N, 2.9693°E)
Time: 19:47:47
(UTC+00:00)

ISS - Pass Details

Date: 06 March 2021
Orbit: 418 x 422 km, 51.6° (Epoch: 12 April)

Event Time Altitude Azimuth Distance (km) Brightness Sun altitude
Exits shadow 04:41:04 26° 326° (NNW) 862 -2.4 -17.5°
Maximum altitude 04:42:20 37° 13° (NNE) 673 -2.6 -17.3°
Drops below altitude 10° 04:45:30 10° 82° (E) 1,498 0.4 -16.8°
Sets 04:47:41 0° 91° (E) 2,361 1.7 -16.4°
